Regional Weather Roundup
Issued by NWS

Home | Current Version | Previous Version | Graphics & Text | Print | Product List | Glossary Off
Versions: 1 2 3 4 5 6 7 8 9 10 11 12 13 14 15 16 17 18 19 20 21 22 23 24 25 26 27 28 29 30 31 32 33 34 35 36 37 38 39 40 41 42 43 44 45 46 47 48 49 50

005
ASUS45 KCYS 082210
RWRWY

WYOMING REGIONAL WEATHER ROUNDUP
NATIONAL WEATHER SERVICE CHEYENNE WY
300 PM MST THU DEC 08 2016

NOTE:  "FAIR" INDICATES FEW OR NO CLOUDS BELOW 12,000 FEET
WITH NO SIGNIFICANT WEATHER AND/OR OBSTRUCTIONS TO VISIBILITY.

WYZ001-082300-
YELLOWSTONE NATIONAL PARK

CITY           SKY/WX    TMP DP  RH WIND       PRES   REMARKS
LK YELLOWSTONE   N/A      8  -4  58 CALM      30.04F
W YELLOWSTONE  NOT AVBL

$$
WYZ002>013-054>058-071-098>099-082300-
NORTHERN WYOMING

CITY           SKY/WX    TMP DP  RH WIND       PRES   REMARKS
JACKSON        PTSUNNY    3  -4  72 CALM      30.14F
CODY           FAIR       9  -4  55 S3        30.21F
GREYBULL       FAIR      11  -3  53 E7        30.31F WCI   0
WORLAND        FAIR      11   1  64 NE5       30.28F WCI   3
SHERIDAN       FAIR       7  -4  60 W3        30.34F
BUFFALO        FAIR       5  -3  69 SE12      30.26F WCI -11
GILLETTE       FAIR       8  -1  66 E7        30.34F WCI  -3
HULETT         FAIR       9  -2  61 CALM      30.37F
NEWCASTLE      FAIR       9  -4  56 CALM      30.39S

$$
WYZ014>020-022>026-101>103-082300-
CENTRAL WYOMING

CITY           SKY/WX    TMP DP  RH WIND       PRES   REMARKS
BIG PINEY      CLOUDY    10  -1  61 CALM      30.14F
PINEDALE       FAIR      10   0  61 S6        30.14S WCI   1
DUBOIS         MOCLDY    10  -2  56 SE8       30.02F WCI  -1
LANDER         FAIR      10  -1  61 CALM      30.17F
RIVERTON       FAIR      12   0  58 E3        30.18F
CASPER         FAIR      -3  -9  75 E8        30.24F WCI -18
DOUGLAS        FAIR       0  -6  76 W5        30.30F WCI -10

$$
WYZ021-027>030-104>119-082300-
SOUTHERN WYOMING

CITY           SKY/WX    TMP DP  RH WIND       PRES   REMARKS
EVANSTON       LGT SNOW   9   2  73 E10       30.09S WCI  -5
FORT BRIDGER   LGT SNOW   6   1  79 CALM      30.15F
ROCK SPRINGS   CLOUDY    10   2  69 W3        30.14F
DIXON          CLOUDY    24   3  41 SW10      30.21S WCI  14
RAWLINS        FAIR      17   0  47 SW9       30.14F WCI   6
SARATOGA       MOCLDY    21   5  49 SE6       30.14S WCI  14
LARAMIE        FAIR      16  -2  45 S10       30.10F WCI   4
CHEYENNE       FAIR       9   2  73 S14       30.22S WCI  -7
TORRINGTON     FAIR      15  -1  49 SE10      30.36F WCI   2
PINE BLUFFS    FAIR      12   3  67 S7        30.33S WCI   2

$$




USA.gov is the U.S. government's official web portal to all federal, state and local government web resources and services.